Regional Weather Roundup
Issued by NWS

Home | Current Version | Previous Version | Graphics & Text | Print | Product List | Glossary On
Versions: 1 2 3 4 5 6 7 8 9 10 11 12 13 14 15 16 17 18 19 20 21 22 23 24 25 26 27 28 29 30 31 32 33 34 35 36 37 38 39 40 41 42 43 44 45 46 47 48 49 50
000
ASUS43 KFSD 220602
RWRSD

WEATHER ROUNDUP FOR SOUTH DAKOTA
NATIONAL WEATHER SERVICE SIOUX FALLS SD
1200 AM CST WED FEB 22 2017

NOTE: "FAIR" INDICATES FEW OR NO CLOUDS BELOW 12,000 FEET WITH NO
SIGNIFICANT WEATHER AND/OR OBSTRUCTIONS TO VISIBILITY.


SDZ001>005-009-010-012>017-220700-
NORTHWEST AND NORTH CENTRAL SOUTH DAKOTA

CITY           SKY/WX    TMP DP  RH WIND       PRES   REMARKS
BUFFALO          N/A     41  35  79 SW7       29.62R
FAITH            N/A     42  38  85 NE8       29.65F
MOBRIDGE       CLOUDY    41  34  76 VRB5      29.61F
$$

SDZ012>016-024>037-041>051-057-063-072>074-220700-
SOUTHWEST AND SOUTH CENTRAL SOUTH DAKOTA

CITY           SKY/WX    TMP DP  RH WIND       PRES   REMARKS
RAPID CTY ARPT LGT RAIN  50  36  58 W20G25    29.73R
PIERRE         PTCLDY    47  38  71 W7        29.65R
CUSTER         LGT RAIN  38  34  85 W8        29.76F
ELLSWORTH AFB  CLOUDY    51  35  54 W22G28    29.72
PHILIP         CLOUDY    54  37  52 NW12      29.63F
PINE RIDGE     CLEAR     40  30  67 E5        29.73F
SPEARFISH      MOCLDY    50  28  43 SW28G41   29.70S
WINNER         FAIR      51  35  54 W6        29.69R
$$

SDZ004>011-016>023-039-040-220700-
NORTHEAST SOUTH DAKOTA

CITY           SKY/WX    TMP DP  RH WIND       PRES   REMARKS
ABERDEEN       CLOUDY    41  35  79 NE9       29.64F
WATERTOWN      LGT RAIN  45  38  76 W8        29.65R
BROOKINGS      PTCLDY    45  39  79 SE9       29.61F
SISSETON         N/A     38  37  97 W6        29.66F
$$

SDZ017-020-022-023-036>040-048>070-220700-
SOUTHEAST SOUTH DAKOTA

CITY           SKY/WX    TMP DP  RH WIND       PRES   REMARKS
SIOUX FALLS    PTCLDY    44  38  79 N18       29.66R
HURON          MOCLDY    49  42  77 NW8       29.66R
CHAMBERLAIN    CLEAR     54  39  58 N9        29.64F
MITCHELL       CLEAR     48  37  65 S5        29.64R
YANKTON        PTCLDY    57  36  44 SW9       29.64F
$$

ABBREVIATIONS USED IN REMARKS
   TC - TEMPERATURE IN CELSIUS
  WCI - WIND CHILL INDEX
   HX - HEAT INDEX
  VSB - VISIBILITY





USA.gov is the U.S. government's official web portal to all federal, state and local government web resources and services.